This demonstration page uses our WeatherBlox Daily Observations layout. Learn more.

Left ArrowRight Arrow

40.92945, -100.16068

Hourly Observations for September 12, 2016

Temp ( °F °C ) Dew Point ( °F °C ) Humidity (%) Winds ( mph kmh ) Pressure ( in mb ) Visibility ( mi km ) Precip ( " mm )
12:15 am 00:15 Clear 68 20.1 57 14.1 69 69 S 15 24 29.74 1007 10 16 N/A
12:35 am 00:35 Clear 68 19.8 57 14.1 70 70 S 16 26 29.74 1007 10 16 N/A
12:55 am 00:55 Clear 67 19.7 58 14.2 71 71 S 16 26 29.74 1007 10 16 N/A
1:15 am 01:15 Clear 67 19.5 58 14.3 72 72 S 15 24 29.74 1007 10 16 N/A
1:35 am 01:35 Clear 67 19.2 58 14.5 74 74 S 14 22 29.74 1007 10 16 N/A
1:55 am 01:55 Clear 66 19 58 14.5 75 75 S 13 20 29.71 1006 10 16 N/A
2:15 am 02:15 Clear 66 18.7 58 14.6 77 77 S 9 15 29.71 1006 10 16 N/A
2:35 am 02:35 Clear 65 18.2 58 14.6 80 80 SSE 8 13 29.71 1006 10 16 N/A
2:55 am 02:55 Clear 64 17.9 58 14.6 81 81 SE 6 9 29.71 1006 10 16 N/A
3:15 am 03:15 Clear 63 17.3 58 14.6 84 84 SE 7 11 29.74 1007 10 16 N/A
3:35 am 03:35 Clear 63 17.2 59 14.8 86 86 SE 5 7 29.74 1007 10 16 N/A
3:55 am 03:55 Clear 63 17 58 14.6 86 86 ESE 7 11 29.74 1007 10 16 N/A
4:15 am 04:15 Clear 63 17.1 59 15 88 88 SE 7 11 29.74 1007 10 16 N/A
4:35 am 04:35 Clear 63 17.3 59 15.1 87 87 SE 6 9 29.71 1006 10 16 N/A
4:55 am 04:55 Clear 64 17.5 59 15.2 86 86 S 9 15 29.68 1005 10 16 N/A
5:15 am 05:15 Clear 64 17.5 60 15.5 88 88 S 12 19 29.68 1005 10 16 N/A
5:35 am 05:35 Clear 64 17.5 60 15.6 89 89 S 8 13 29.68 1005 10 16 N/A
5:55 am 05:55 Clear 64 17.6 60 15.8 89 89 SSE 6 9 29.68 1005 10 16 N/A
6:15 am 06:15 Clear 64 17.9 61 16 89 89 S 5 7 29.68 1005 10 16 N/A
6:35 am 06:35 Clear 64 17.6 61 16 90 90 S 8 13 29.68 1005 10 16 N/A
6:55 am 06:55 Clear 64 17.6 61 15.9 90 90 SSE 6 9 29.68 1005 10 16 N/A
7:15 am 07:15 Clear 64 17.5 60 15.8 90 90 SSE 8 13 29.68 1005 10 16 N/A
7:35 am 07:35 Sunny 64 17.5 61 16 91 91 S 6 9 29.68 1005 10 16 N/A
7:55 am 07:55 Mostly Cloudy 64 17.7 61 16.1 90 90 NNW 7 11 29.77 1008 10 16 N/A
8:15 am 08:15 Mostly Cloudy 64 17.5 61 16 91 91 NNW 9 15 29.80 1009 10 16 N/A
8:35 am 08:35 Mostly Cloudy 64 18 61 16.2 89 89 NNW 5 7 29.80 1009 10 16 N/A
8:55 am 08:55 Mostly Cloudy 65 18.5 61 16.2 87 87 N 6 9 29.74 1007 10 16 N/A
9:15 am 09:15 Cloudy 65 18.6 62 16.4 87 87 Calm 29.74 1007 10 16 N/A
9:35 am 09:35 Cloudy 64 17.6 54 12.2 71 71 N 12 19 29.83 1010 10 16 N/A
9:55 am 09:55 Cloudy 61 15.9 51 10.6 71 71 N 10 17 29.83 1010 10 16 N/A
10:15 am 10:15 Cloudy 61 15.9 51 10.5 71 71 N 10 17 29.83 1010 10 16 N/A
10:35 am 10:35 Cloudy 61 16.1 51 10.5 70 70 NNE 10 17 29.85 1011 10 16 N/A
10:55 am 10:55 Cloudy 62 16.6 52 10.9 69 69 N 14 22 29.83 1010 10 16 N/A
11:15 am 11:15 Cloudy 64 17.7 51 10.8 64 64 NNW 16 26 29.85 1011 10 16 N/A
11:35 am 11:35 Mostly Cloudy 64 17.5 51 10.6 64 64 N 16 26 29.85 1011 10 16 N/A
11:55 am 11:55 Partly Cloudy 66 18.7 52 11.1 61 61 N 15 24 29.85 1011 10 16 N/A
12:15 pm 12:15 Sunny 67 19.5 53 11.6 60 60 N 15 24 29.83 1010 10 16 N/A
12:35 pm 12:35 Sunny 66 19.1 53 11.7 62 62 NNW 16 26 29.83 1010 10 16 N/A
12:55 pm 12:55 Sunny 66 18.7 52 11.2 62 62 N 13 20 29.88 1012 10 16 N/A
1:15 pm 13:15 Sunny 66 18.7 53 11.5 63 63 NNE 14 22 29.85 1011 10 16 N/A
1:35 pm 13:35 Partly Cloudy 66 18.7 53 11.6 64 64 N 15 24 29.88 1012 10 16 N/A
1:55 pm 13:55 Partly Cloudy with Nearby Thunderstorms 65 18.2 53 11.7 66 66 N 20 31 29.88 1012 10 16 N/A
2:15 pm 14:15 Partly Cloudy 65 18.2 53 11.7 66 66 N 16 26 29.88 1012 10 16 N/A
2:35 pm 14:35 Mostly Cloudy 64 17.8 53 11.7 68 68 N 14 22 29.91 1013 10 16 N/A
2:55 pm 14:55 Mostly Cloudy 63 17 53 11.5 70 70 NNE 16 26 29.88 1012 10 16 N/A
3:15 pm 15:15 Partly Cloudy 64 17.7 53 11.8 69 69 NNE 14 22 29.91 1013 10 16 N/A
3:35 pm 15:35 Cloudy 62 16.5 52 11.3 72 72 NNE 12 19 29.94 1014 10 16 N/A
3:55 pm 15:55 Cloudy 62 16.7 53 11.5 72 72 N 16 26 29.94 1014 10 16 N/A
4:15 pm 16:15 Cloudy 61 16 52 11.3 74 74 N 17 28 29.94 1014 10 16 N/A
4:35 pm 16:35 Cloudy 61 15.9 53 11.5 75 75 N 17 28 29.94 1014 10 16 N/A
4:55 pm 16:55 Cloudy 60 15.8 53 11.6 76 76 N 15 24 29.97 1015 10 16 N/A
5:15 pm 17:15 Cloudy 61 16.2 53 11.7 75 75 N 15 24 29.97 1015 10 16 N/A
5:35 pm 17:35 Cloudy 60 15.5 53 11.7 78 78 NNE 17 28 29.97 1015 10 16 N/A
5:55 pm 17:55 Cloudy 60 15.7 53 11.5 76 76 N 17 28 29.97 1015 10 16 N/A
6:15 pm 18:15 Cloudy 60 15.5 53 11.7 78 78 N 18 30 29.97 1015 10 16 N/A
6:35 pm 18:35 Cloudy 60 15.5 53 11.7 78 78 N 16 26 29.97 1015 10 16 N/A
6:55 pm 18:55 Cloudy 60 15.6 53 11.7 78 78 N 14 22 29.97 1015 10 16 N/A
7:15 pm 19:15 Cloudy 60 15.7 53 11.6 77 77 NNE 14 22 30.00 1016 10 16 N/A
7:35 pm 19:35 Cloudy 60 15.7 53 11.6 77 77 NNE 10 17 30.00 1016 10 16 N/A
7:55 pm 19:55 Cloudy 60 15.5 53 11.5 77 77 N 13 20 30.00 1016 10 16 N/A
8:15 pm 20:15 Mostly Cloudy 59 15.2 52 11.2 77 77 NNE 8 13 30.00 1016 10 16 N/A
8:35 pm 20:35 Cloudy 60 15.5 52 11.1 75 75 NNE 8 13 30.00 1016 10 16 N/A
8:55 pm 20:55 Cloudy 60 15.5 51 10.5 72 72 NNE 13 20 30.00 1016 10 16 N/A
9:15 pm 21:15 Cloudy 59 15.2 51 10.5 74 74 NNE 12 19 30.00 1016 10 16 N/A
9:35 pm 21:35 Cloudy 59 15.1 50 10.2 73 73 NNE 12 19 30.00 1016 10 16 N/A
9:55 pm 21:55 Cloudy 59 15.1 50 10 72 72 NNE 10 17 30.03 1017 10 16 N/A
10:15 pm 22:15 Cloudy 59 15.1 49 9.7 70 70 NNE 10 17 30.03 1017 10 16 N/A
10:35 pm 22:35 Cloudy 59 15 50 9.8 71 71 N 10 17 30.03 1017 10 16 N/A
10:55 pm 22:55 Cloudy 59 15 49 9.7 71 71 NNE 7 11 30.03 1017 10 16 N/A
11:15 pm 23:15 Cloudy 59 15 49 9.6 70 70 NNE 7 11 30.03 1017 10 16 N/A
11:35 pm 23:35 Cloudy 59 15 49 9.4 69 69 NNE 13 20 30.03 1017 10 16 N/A
11:55 pm 23:55 Cloudy 59 15 49 9.4 69 69 NNE 8 13 30.03 1017 10 16 N/A

Powered by AerisWeather